Flag for Italy Weather past 2 weeks in Bologna, Italy

Now
45 °F

Sunny.


Feels Like: 39 °F
Forecast: 25 / 35 °F
Wind: 12 mph from West

Location: Bologna / Borgo Panigale

Current Time: Dec 29, 2014 at 2:52:31 PM

Latest Report: Dec 29, 2014 at 2:20 PM


Visibility: 10 mi

Pressure: 30.21 "Hg

Humidity: 46%

Dew point: 25 °F

Location of BolognaLocation

Historic Weather in Bologna — Graph

°F

Bologna temperature yesterday

Maximum temperature yesterday: 37 °F (at 2:20 PM)
Minimum temperature yesterday: 34 °F (at 12:20 AM)
Average temperature yesterday: 35 °F

Past Weeks' High & Low Weather Summary

 TemperatureHumidityPressure
High54 °F (Dec 17, 11:50 AM)100% (Dec 15, 4:50 AM)30.48 "Hg (Dec 15, 4:50 AM)
Low25 °F (Dec 27, 7:20 AM)50% (Dec 27, 12:20 PM)29.50 "Hg (Dec 28, 12:50 AM)
Average41 °F95%30.13 "Hg
* Reported Dec 14 1:20 PM — Dec 29 1:50 PM, Bologna, Weather by CustomWeather, © 2014

Note: Actual official high and low records may vary slightly from our data, if they occured in-between our weather recording intervals... More about our weather records

Advertising

Bologna weather history for previous 24 hours

 ConditionsComfort  
Time TempWeatherWind HumidityBarometerVisibility
1:50 PM
Dec 29
45 °FSunny.12 mph53%30.21 "Hg10 mi
1:20 PM43 °FSunny.10 mph57%30.24 "Hg10 mi
12:50 PM43 °FSunny.10 mph61%30.24 "Hg10 mi
12:20 PM41 °FSunny.10 mph66%30.27 "Hg10 mi
11:50 AM41 °FSunny.9 mph61%30.27 "Hg10 mi
11:20 AM39 °FSunny.8 mph70%30.27 "Hg10 mi
10:50 AM39 °FSunny.8 mph70%30.27 "Hg10 mi
10:20 AM37 °FSunny.5 mph81%30.27 "Hg10 mi
9:50 AM36 °FPassing clouds.3 mph81%30.27 "HgN/A
9:20 AM34 °FSunny.5 mph81%30.24 "Hg10 mi
8:50 AM32 °FSunny.3 mph80%30.24 "Hg10 mi
8:20 AM32 °FSunny.5 mph87%30.21 "Hg10 mi
7:50 AM30 °FClear.7 mph86%30.21 "Hg10 mi
7:20 AM30 °FPassing clouds.6 mph93%30.18 "HgN/A
6:50 AM30 °FClear.7 mph86%30.18 "Hg10 mi
6:20 AM28 °FClear.2 mph93%30.15 "Hg10 mi
5:50 AM32 °FClear.3 mph93%30.15 "Hg5 mi
5:20 AM30 °FClear.3 mph93%30.12 "Hg5 mi
4:50 AM32 °FClear.8 mph93%30.12 "Hg4 mi
4:20 AM30 °FClear.7 mph100%30.12 "Hg4 mi
3:50 AM30 °FClear.7 mph100%30.09 "Hg4 mi
3:20 AM32 °FClear.5 mph100%30.09 "Hg4 mi
2:50 AM32 °FClear.6 mph100%30.09 "Hg4 mi
2:20 AM32 °FClear.3 mph100%30.07 "Hg4 mi
1:50 AM32 °FClear.6 mph100%30.07 "Hg4 mi
1:20 AM32 °FClear.5 mph100%30.04 "Hg4 mi
12:50 AM32 °FClear.5 mph100%30.04 "Hg4 mi
12:20 AM32 °FPassing clouds.6 mph100%30.01 "Hg4 mi
11:50 PM
Dec 28
34 °FPassing clouds.6 mph100%30.01 "Hg4 mi
11:20 PM34 °FPassing clouds.8 mph100%29.98 "Hg4 mi
10:50 PM34 °FPassing clouds.3 mph100%29.98 "Hg4 mi
10:20 PM36 °FPassing clouds.5 mph93%29.95 "Hg4 mi
9:50 PM36 °FPassing clouds.6 mph93%29.95 "Hg4 mi
9:20 PM36 °FPassing clouds.6 mph93%29.92 "Hg5 mi
8:50 PM37 °FPassing clouds.6 mph87%29.89 "Hg5 mi
8:20 PM37 °FPassing clouds.3 mph87%29.89 "Hg5 mi
7:50 PM37 °FPassing clouds.3 mph87%29.86 "Hg5 mi
7:20 PM37 °FPassing clouds.3 mph87%29.83 "Hg5 mi
6:50 PM37 °FPassing clouds.3 mph87%29.83 "Hg5 mi
6:20 PM37 °FPassing clouds.3 mph87%29.80 "Hg5 mi
5:50 PM37 °FPartly cloudy.5 mph87%29.77 "Hg5 mi
5:20 PM37 °FPartly cloudy.5 mph87%29.77 "Hg5 mi
4:50 PM37 °FPartly cloudy.5 mph93%29.74 "Hg5 mi
4:20 PM37 °FBroken clouds.5 mph93%29.71 "Hg5 mi
3:50 PM37 °FScattered clouds.6 mph93%29.68 "Hg5 mi
3:20 PM37 °FScattered clouds.8 mph87%29.68 "Hg6 mi
2:50 PM37 °FScattered clouds.9 mph87%29.65 "Hg6 mi
2:20 PM37 °FPartly sunny.6 mph93%29.62 "Hg5 mi
Weather by CustomWeather, © 2014

See weather overviewHow to use our weather pages